{"data":{"norad_id":63678,"epoch":"2026-09-20T13:57:46.776096Z","epoch_age_seconds":145564,"freshness":"FRESH","line1":"1 63678U 25085Q   26263.58179139  .00013261  00000+0  49041-3 0  9995","line2":"2 63678  43.0033  10.4898 0001298 275.8491  84.2212 15.27590719 78663","mean_motion":15.27590719,"eccentricity":0.0001298,"inclination_deg":43.0033,"raan_deg":10.4898,"arg_perigee_deg":275.8491,"mean_anomaly_deg":84.2212,"bstar":0.00049041,"rev_number":7866,"period_min":94.266087250298,"perigee_km":482.12642189604,"apogee_km":483.90757747436,"semimajor_km":6861.1539996852,"source":"CELESTRAK","updated_at":"2026-09-21T09:00:35.059929Z"}}